Location: Lombard
(41.8800°N, 88.0080°W)
Time: 01:05:17
(UTC-05:00)

Gurwin Techsat 1B - Pass Details

Date: 21 May 2022
Orbit: 811 x 814 km, 98.8° (Epoch: 27 June)

Event Time Altitude Azimuth Distance (km) Brightness Sun altitude
Rises 04:26:42 0° 3° (N) 3,345 12.5 -10.1°
Reaches altitude 10° 04:29:19 10° 352° (N) 2,408 11.5 -9.7°
Maximum altitude 04:33:46 28° 295° (WNW) 1,484 9.8 -9.0°
Enters shadow 04:38:11 10° 238° (WSW) 2,383 10.4 -8.4°
